Flag for U.S.A. Weather past 2 weeks in Shreveport, Louisiana, U.S.A.

Now
55 °F

Passing clouds.


Feels Like: 54 °F
Forecast: 44 / 72 °F
Wind: 5 mph from North

Location: Shreveport Regional Airport

Current Time: Mar 28, 2015 at 12:00:35 AM

Latest Report: Mar 27, 2015 at 10:56 PM


Visibility: 10 mi

Pressure: 30.16 "Hg

Humidity: 45%

Dew point: 34 °F

Location of ShreveportLocation

Historic Weather in Shreveport — Graph

°F

Shreveport temperature yesterday

Maximum temperature yesterday: 67 °F (at 12:56 PM)
Minimum temperature yesterday: 41 °F (at 3:56 AM)
Average temperature yesterday: 55 °F

Past Weeks' High & Low Weather Summary

 TemperatureHumidityPressure
High85 °F (Mar 17, 2:56 PM)100% (Mar 13, 4:56 AM)30.27 "Hg (Mar 13, 4:56 AM)
Low41 °F (Mar 27, 3:56 AM)31% (Mar 27, 3:56 PM)29.82 "Hg (Mar 26, 2:56 AM)
Average61 °F81%30.04 "Hg
* Reported Mar 12 9:56 PM — Mar 27 9:56 PM, Shreveport, Weather by CustomWeather, © 2015

Note: Actual official high and low records may vary slightly from our data, if they occured in-between our weather recording intervals... More about our weather records

Advertising

Shreveport weather history for previous 24 hours

 ConditionsComfort  
Time TempWeatherWind HumidityBarometerVisibility
9:56 PM
Fri, Mar 27
57 °FPassing clouds.5 mph55%30.15 "Hg10 mi
8:56 PM58 °FPartly cloudy.6 mph51%30.11 "Hg10 mi
7:56 PM59 °FBroken clouds.5 mph49%30.09 "Hg10 mi
6:56 PM64 °FScattered clouds.10 mph40%30.09 "Hg10 mi
5:56 PM66 °FPassing clouds.12 mph36%30.08 "Hg10 mi
4:56 PM67 °FScattered clouds.16 mph33%30.08 "Hg10 mi
3:56 PM67 °FScattered clouds.16 mph31%30.08 "Hg10 mi
2:56 PM65 °FPartly sunny.20 mph36%30.09 "Hg10 mi
1:56 PM65 °FScattered clouds.17 mph37%30.09 "Hg10 mi
12:56 PM67 °FBroken clouds.20 mph32%30.09 "Hg10 mi
11:56 AM66 °FPartly sunny.15 mph33%30.09 "Hg10 mi
10:56 AM61 °FPartly sunny.12 mph42%30.10 "Hg10 mi
9:56 AM54 °FScattered clouds.5 mph67%30.10 "Hg10 mi
8:56 AM47 °FScattered clouds.3 mph80%30.11 "Hg10 mi
7:56 AM42 °FPassing clouds.No wind89%30.11 "Hg10 mi
6:56 AM42 °FPassing clouds.3 mph79%30.10 "Hg10 mi
5:56 AM42 °FClear.No wind82%30.07 "Hg10 mi
4:56 AM41 °FClear.5 mph89%30.05 "Hg10 mi
3:56 AM41 °FClear.No wind89%30.04 "Hg10 mi
2:56 AM42 °FClear.No wind92%30.07 "Hg10 mi
1:56 AM46 °FClear.5 mph83%30.08 "Hg10 mi
12:56 AM51 °FClear.8 mph74%30.09 "Hg10 mi
Weather by CustomWeather, © 2015

See weather overviewHow to use our weather pages